Location: Unspecified
(0.0000°N, 0.0000°E)
Time: 06:58:55
(UTC+00:00)

N. Korean satellite - Pass Details

Date: 27 July 2021
Orbit: 451 x 498 km, 97.2° (Epoch: 31 July)

Event Time Altitude Azimuth Distance (km) Brightness Sun altitude
Rises 04:53:20 0° 12° (NNE) 2,496 10.6 -17.3°
Reaches altitude 10° 04:55:23 10° 12° (NNE) 1,615 9.6 -16.8°
Maximum altitude 04:58:51 86° 101° (ESE) 467 6.4 -16.0°
Enters shadow 05:02:12 11° 190° (S) 1,564 8.8 -15.2°
